D1965 Weather Reports


Display with metric or nautical units.
time (UTC)temp
F
wind
direction
speed
MPH
gust
MPH
rain 1hr
in
rain 24hr
in
rain mn
in
humidity
%
barometer
mb
20260904040005 56 255 2.0 7.0 0.00 0.00 0.00 90 1010.2
20260904035504 56 259 2.0 7.0 0.00 0.00 0.00 90 1010.2
20260904035005 56 268 2.0 6.0 0.00 0.00 0.00 90 1010.3
20260904034504 56 265 3.0 7.0 0.00 0.00 0.00 90 1010.0
20260904034006 55 264 3.0 8.0 0.00 0.00 0.00 90 1010.2
20260904033504 55 264 3.0 9.0 0.00 0.00 0.00 90 1010.1
20260904032504 55 264 2.0 6.0 0.00 0.00 0.00 90 1009.8
20260904032005 55 270 2.0 6.0 0.00 0.00 0.00 90 1010.1
20260904031504 55 272 3.0 6.0 0.00 0.00 0.00 90 1010.3
20260904031004 55 268 3.0 6.0 0.00 0.00 0.00 89 1010.2
20260904030504 56 261 3.0 7.0 0.00 0.00 0.00 89 1009.8
20260904025504 56 265 3.0 8.0 0.00 0.00 0.00 88 1009.7
20260904025005 56 269 4.0 10.0 0.00 0.00 0.00 88 1009.4
20260904024504 56 271 4.0 10.0 0.00 0.00 0.00 89 1009.7
20260904024005 56 270 5.0 12.0 0.00 0.00 0.00 90 1009.7
20260904023504 56 271 5.0 12.0 0.00 0.00 0.00 90 1009.8
20260904023005 56 268 6.0 14.0 0.00 0.00 0.00 91 1009.7
20260904022504 57 268 7.0 14.0 0.00 0.00 0.00 91 1009.5
20260904022005 57 270 6.0 13.0 0.00 0.00 0.00 93 1009.6
20260904021503 57 270 5.0 11.0 0.00 0.00 0.00 93 1009.3
20260904021005 57 270 4.0 9.0 0.00 0.00 0.00 93 1009.2
20260904020504 57 267 4.0 10.0 0.00 0.00 0.00 94 1009.3
20260904020005 57 267 4.0 10.0 0.00 0.00 0.00 94 1009.4
20260904015504 57 270 4.0 10.0 0.00 0.00 0.00 94 1009.2
20260904015005 57 270 4.0 9.0 0.00 0.00 0.00 94 1009.3
20260904014005 57 269 4.0 11.0 0.00 0.00 0.00 94 1009.5
20260904013504 57 271 4.0 11.0 0.00 0.00 0.00 94 1009.5
20260904013004 57 271 3.0 8.0 0.00 0.00 0.00 94 1009.3
20260904012504 57 269 4.0 7.0 0.00 0.00 0.00 95 1009.1
20260904011503 57 266 3.0 7.0 0.00 0.00 0.00 94 1009.0
20260904011005 57 270 3.0 9.0 0.00 0.00 0.00 94 1009.3
20260904010504 57 269 4.0 9.0 0.00 0.00 0.00 95 1009.3
20260904010004 57 267 4.0 9.0 0.00 0.00 0.00 95 1009.2
20260904005004 57 265 3.0 6.0 0.00 0.00 0.00 95 1009.0
20260904004504 57 266 3.0 9.0 0.00 0.00 0.00 95 1008.9
20260904003504 57 267 2.0 7.0 0.00 0.00 0.00 95 1009.1
20260904003005 57 271 2.0 8.0 0.00 0.00 0.00 95 1009.2
20260904002006 57 253 2.0 8.0 0.00 0.00 0.00 95 1009.2
20260904001504 57 259 2.0 7.0 0.00 0.00 0.00 94 1009.1
20260904000503 57 249 2.0 7.0 0.00 0.00 0.00 94 1009.0
20260904000004 57 250 2.0 6.0 0.00 0.00 0.00 94 1009.3
20260903235504 57 245 2.0 7.0 0.00 0.00 0.00 94 1009.2
20260903234504 57 255 2.0 6.0 0.00 0.00 0.00 94 1009.1
20260903233504 57 263 2.0 4.0 0.00 0.00 0.00 94 1009.4
20260903233005 57 267 1.0 4.0 0.00 0.00 0.00 94 1009.4
20260903232503 57 266 1.0 3.0 0.00 0.00 0.00 94 1009.2
20260903232004 57 260 2.0 6.0 0.00 0.00 0.00 94 1009.2
20260903231504 57 246 2.0 6.0 0.00 0.00 0.00 94 1009.1
20260903231005 57 236 2.0 4.0 0.00 0.00 0.00 94 1009.0
20260903230503 57 253 2.0 6.0 0.00 0.00 0.00 94 1009.0
20260903230004 57 246 2.0 6.0 0.00 0.00 0.00 94 1009.2
20260903225504 57 230 2.0 5.0 0.00 0.00 0.00 94 1009.1
20260903225005 57 233 2.0 5.0 0.00 0.00 0.00 94 1009.2
20260903224504 57 250 1.0 6.0 0.00 0.00 0.00 94 1009.0
20260903224004 57 265 1.0 6.0 0.00 0.00 0.00 94 1009.1
20260903223005 57 254 0.0 4.0 0.00 0.00 0.00 95 1009.3
20260903222004 57 0 0.0 0.0 0.00 0.00 0.00 94 1009.3
20260903221503 57 0 0.0 0.0 0.00 0.00 0.00 94 1009.1
20260903220503 57 158 0.0 2.0 0.00 0.00 0.00 94 1008.8
20260903220005 57 158 0.0 2.0 0.00 0.00 0.00 94 1008.8
20260903215505 56 0 0.0 0.0 0.00 0.00 0.00 94 1008.9
20260903215006 56 161 0.0 2.0 0.00 0.00 0.00 94 1009.0
20260903214506 56 156 0.0 2.0 0.00 0.00 0.00 94 1009.1
20260903213506 56 148 0.0 3.0 0.00 0.00 0.00 94 1009.3
20260903212505 56 153 1.0 4.0 0.00 0.00 0.00 94 1009.6
20260903212006 56 158 1.0 4.0 0.00 0.00 0.00 94 1009.7
20260903211505 56 156 1.0 4.0 0.00 0.00 0.00 94 1009.8
20260903210505 56 164 0.0 5.0 0.00 0.00 0.00 94 1009.8
20260903210006 56 0 0.0 0.0 0.00 0.00 0.00 94 1009.8
20260903204505 56 0 0.0 0.0 0.00 0.00 0.00 94 1009.9
20260903204007 56 0 0.0 0.0 0.00 0.00 0.00 94 1010.1
20260903203506 56 0 0.0 0.0 0.00 0.00 0.00 93 1010.2
20260903202505 56 0 0.0 0.0 0.00 0.00 0.00 93 1010.3
20260903202006 56 0 0.0 0.0 0.00 0.00 0.00 93 1010.3
20260903201506 56 213 0.0 1.0 0.00 0.00 0.00 93 1010.3
20260903201006 56 216 1.0 4.0 0.00 0.00 0.00 93 1010.3
20260903200506 56 221 1.0 4.0 0.00 0.00 0.00 93 1010.6
20260903195505 56 239 1.0 4.0 0.00 0.00 0.00 93 1010.9
20260903195006 56 227 1.0 5.0 0.00 0.00 0.00 93 1010.8
20260903194505 56 225 2.0 6.0 0.00 0.00 0.00 93 1011.0
20260903194006 56 238 2.0 6.0 0.00 0.00 0.00 93 1011.1
20260903193505 57 248 3.0 7.0 0.00 0.00 0.00 93 1011.1
20260903193006 57 240 3.0 7.0 0.00 0.00 0.00 93 1011.1
20260903192006 57 220 1.0 5.0 0.00 0.00 0.00 93 1010.9
20260903190505 57 240 2.0 5.0 0.00 0.00 0.00 93 1011.1
20260903190006 57 231 2.0 7.0 0.00 0.00 0.00 93 1011.1
20260903185505 57 238 2.0 7.0 0.00 0.00 0.00 92 1011.0
20260903185006 57 248 2.0 5.0 0.00 0.00 0.00 92 1011.3
20260903184505 58 250 2.0 4.0 0.00 0.00 0.00 92 1011.2
20260903184006 58 239 2.0 4.0 0.00 0.00 0.00 92 1011.5
20260903183505 58 234 2.0 6.0 0.00 0.00 0.00 92 1011.6
20260903182505 58 234 3.0 9.0 0.00 0.00 0.00 92 1011.8
20260903182006 58 233 2.0 9.0 0.00 0.00 0.00 92 1011.7
20260903181506 58 221 2.0 4.0 0.00 0.00 0.00 93 1011.8
20260903181006 58 216 2.0 4.0 0.00 0.00 0.00 92 1011.9
20260903180506 58 217 2.0 5.0 0.00 0.00 0.00 92 1012.1
20260903180006 58 237 2.0 7.0 0.00 0.00 0.00 92 1012.2
20260903175506 58 260 3.0 7.0 0.00 0.00 0.00 92 1012.5
20260903175006 58 269 3.0 7.0 0.00 0.00 0.00 92 1012.4
20260903174505 58 263 3.0 7.0 0.00 0.00 0.00 92 1012.5
20260903173505 58 271 5.0 11.0 0.00 0.00 0.00 90 1012.4
20260903173006 59 270 5.0 13.0 0.00 0.00 0.00 90 1012.7
20260903172505 59 267 5.0 13.0 0.00 0.00 0.00 90 1012.8
20260903172007 59 270 4.0 9.0 0.00 0.00 0.00 90 1013.0
20260903171505 60 270 4.0 9.0 0.00 0.00 0.00 90 1013.0
20260903171007 60 266 4.0 9.0 0.00 0.00 0.00 90 1013.0
20260903170006 60 269 4.0 10.0 0.00 0.00 0.00 89 1012.3
20260903165505 60 266 5.0 10.0 0.00 0.00 0.00 89 1012.8
20260903165005 61 266 4.0 8.0 0.00 0.00 0.00 88 1012.4
20260903164505 61 268 3.0 8.0 0.00 0.00 0.00 88 1012.5
20260903164006 61 268 4.0 8.0 0.00 0.00 0.00 87 1012.5
20260903163005 62 262 3.0 8.0 0.00 0.00 0.00 86 1012.2
20260903162505 62 261 3.0 7.0 0.00 0.00 0.00 85 1012.0
20260903161005 62 259 3.0 8.0 0.00 0.00 0.00 84 1012.6
20260903160505 62 260 3.0 10.0 0.00 0.00 0.00 84 1012.4
20260903160007 62 257 4.0 10.0 0.00 0.00 0.00 84 1012.6
20260903155505 62 260 3.0 9.0 0.00 0.00 0.00 85 1012.8
20260903155006 62 263 4.0 10.0 0.00 0.00 0.00 84 1012.7
20260903154505 63 254 4.0 10.0 0.00 0.00 0.00 82 1013.1
20260903154006 63 251 4.0 10.0 0.00 0.00 0.00 81 1013.2
20260903153505 64 259 4.0 9.0 0.00 0.00 0.00 80 1013.1
20260903153006 64 266 4.0 9.0 0.00 0.00 0.00 78 1013.3
20260903152505 64 267 4.0 12.0 0.00 0.00 0.00 78 1013.3
20260903152006 65 267 5.0 12.0 0.00 0.00 0.00 77 1013.0
20260903151504 65 269 6.0 15.0 0.00 0.00 0.00 76 1013.2
20260903151006 66 269 5.0 15.0 0.00 0.00 0.00 74 1013.4
20260903150505 66 270 5.0 9.0 0.00 0.00 0.00 75 1013.4
20260903150006 67 270 4.0 9.0 0.00 0.00 0.00 75 1013.3
20260903145504 67 266 4.0 9.0 0.00 0.00 0.00 74 1013.3
20260903144505 68 272 5.0 12.0 0.00 0.00 0.00 72 1013.3
20260903144006 68 271 6.0 17.0 0.00 0.00 0.00 70 1013.3
20260903143505 68 270 7.0 17.0 0.00 0.00 0.00 70 1013.2
20260903142505 69 272 5.0 13.0 0.00 0.00 0.00 68 1013.2
20260903142006 69 270 5.0 13.0 0.00 0.00 0.00 68 1013.3
20260903141505 70 270 5.0 13.0 0.00 0.00 0.00 67 1013.1
20260903141006 70 270 6.0 12.0 0.00 0.00 0.00 67 1013.2
20260903140006 70 266 6.0 13.0 0.00 0.00 0.00 68 1013.3
20260903135505 69 267 6.0 11.0 0.00 0.00 0.00 67 1012.8
20260903134505 69 270 6.0 11.0 0.00 0.00 0.00 68 1013.4
20260903134005 69 266 6.0 11.0 0.00 0.00 0.00 70 1013.5
20260903133505 69 262 5.0 11.0 0.00 0.00 0.00 70 1013.1
20260903133007 69 265 6.0 13.0 0.00 0.00 0.00 70 1012.8
20260903132006 69 269 6.0 13.0 0.00 0.00 0.00 71 1013.6
20260903131505 69 271 6.0 14.0 0.00 0.00 0.00 70 1013.6
20260903131006 69 268 7.0 14.0 0.00 0.00 0.00 71 1013.6
20260903130505 69 266 7.0 15.0 0.00 0.00 0.00 69 1013.5
20260903130006 70 266 6.0 15.0 0.00 0.00 0.00 69 1013.3
20260903124505 71 257 7.0 14.0 0.00 0.00 0.00 64 1012.8
20260903124006 71 253 7.0 16.0 0.00 0.00 0.00 66 1012.9
20260903123505 71 255 7.0 16.0 0.00 0.00 0.00 69 1012.9
20260903123006 70 261 7.0 15.0 0.00 0.00 0.00 68 1013.1
20260903122005 70 260 7.0 14.0 0.00 0.00 0.00 68 1013.1
20260903121505 71 267 7.0 16.0 0.00 0.00 0.00 67 1013.1
20260903121005 71 271 8.0 16.0 0.00 0.00 0.00 67 1013.1
20260903120505 71 269 8.0 17.0 0.00 0.00 0.00 68 1013.2
20260903120006 71 265 8.0 17.0 0.00 0.00 0.00 68 1013.4
20260903115006 70 248 8.0 18.0 0.00 0.00 0.00 69 1013.3
20260903114006 70 250 7.0 17.0 0.00 0.00 0.00 69 1013.4
20260903113006 69 244 6.0 14.0 0.00 0.00 0.00 73 1013.2
20260903112504 69 253 6.0 13.0 0.00 0.00 0.00 73 1013.2
20260903112006 69 263 6.0 14.0 0.00 0.00 0.00 74 1013.3
20260903111504 68 265 7.0 16.0 0.00 0.00 0.00 73 1013.5
20260903110505 68 259 8.0 14.0 0.00 0.00 0.00 73 1013.5
20260903110005 68 257 7.0 16.0 0.00 0.00 0.00 74 1013.7
20260903105504 68 256 8.0 18.0 0.00 0.00 0.00 74 1013.9
20260903105005 68 253 7.0 18.0 0.00 0.00 0.00 76 1013.5
20260903104505 68 254 6.0 13.0 0.00 0.00 0.00 75 1013.5
20260903104005 67 256 6.0 13.0 0.00 0.00 0.00 76 1013.5
20260903103505 67 254 6.0 13.0 0.00 0.00 0.00 77 1013.6
20260903103005 67 255 5.0 16.0 0.00 0.00 0.00 78 1013.6
20260903102504 67 255 6.0 16.0 0.00 0.00 0.00 78 1013.3
20260903102005 66 254 6.0 14.0 0.00 0.00 0.00 78 1013.6
20260903101504 66 252 5.0 13.0 0.00 0.00 0.00 79 1013.6
20260903101006 66 249 5.0 14.0 0.00 0.00 0.00 81 1013.7
20260903100504 66 244 4.0 14.0 0.00 0.00 0.00 81 1013.7
20260903095005 65 243 4.0 10.0 0.00 0.00 0.00 82 1013.8
20260903094005 65 246 4.0 11.0 0.00 0.00 0.00 83 1013.7
20260903093504 65 247 3.0 8.0 0.00 0.00 0.00 84 1013.9
20260903093005 65 238 4.0 10.0 0.00 0.00 0.00 85 1013.8
20260903092505 64 230 4.0 10.0 0.00 0.00 0.00 85 1014.2
20260903092007 64 237 4.0 11.0 0.00 0.00 0.00 86 1014.2
20260903091006 64 241 4.0 12.0 0.00 0.00 0.00 87 1014.3
20260903090009 63 243 5.0 13.0 0.00 0.00 0.00 87 1014.3
20260903083504 62 235 3.0 9.0 0.00 0.00 0.00 89 1014.3
20260903083006 62 237 2.0 8.0 0.00 0.00 0.00 89 1014.3
20260903082505 62 235 2.0 6.0 0.00 0.00 0.00 89 1014.2
20260903081504 62 229 2.0 6.0 0.00 0.00 0.00 89 1014.1
20260903081006 62 221 2.0 5.0 0.00 0.00 0.00 90 1014.1
20260903080504 62 233 2.0 5.0 0.00 0.00 0.00 89 1014.1
20260903075005 61 237 2.0 8.0 0.00 0.00 0.00 90 1014.2
20260903074505 61 237 3.0 9.0 0.00 0.00 0.00 90 1014.2
20260903074006 61 242 3.0 9.0 0.00 0.00 0.00 90 1014.2
20260903073504 61 243 2.0 6.0 0.00 0.00 0.00 91 1014.2
20260903073006 61 228 2.0 7.0 0.00 0.00 0.00 91 1014.0
20260903072006 60 225 2.0 5.0 0.00 0.00 0.00 91 1014.2
20260903071504 60 240 2.0 5.0 0.00 0.00 0.00 92 1014.1
20260903071005 60 232 2.0 5.0 0.00 0.00 0.00 92 1014.2
20260903070504 60 215 1.0 4.0 0.00 0.00 0.00 92 1014.3
20260903065504 59 164 0.0 4.0 0.00 0.00 0.00 92 1014.2
20260903065006 59 182 1.0 4.0 0.00 0.00 0.00 92 1014.0
20260903064505 59 192 1.0 3.0 0.00 0.00 0.00 93 1013.8
20260903064006 59 194 0.0 3.0 0.00 0.00 0.00 93 1013.9
20260903062008 59 181 0.0 3.0 0.00 0.00 0.00 93 1013.8
20260903061505 59 183 0.0 3.0 0.00 0.00 0.00 93 1013.8
20260903060005 59 227 2.0 4.0 0.00 0.00 0.00 92 1013.9
20260903055504 59 232 2.0 4.0 0.00 0.00 0.00 92 1013.9
20260903055005 59 242 1.0 4.0 0.00 0.00 0.00 92 1013.8
20260903054006 59 239 2.0 5.0 0.00 0.00 0.00 92 1013.8
20260903053005 60 252 3.0 9.0 0.00 0.00 0.00 91 1013.6
20260903052504 60 254 3.0 9.0 0.00 0.00 0.00 91 1013.7
20260903052005 60 248 3.0 9.0 0.00 0.00 0.00 90 1013.8
20260903051006 60 250 4.0 10.0 0.00 0.00 0.00 89 1013.5
20260903050005 60 247 3.0 10.0 0.00 0.00 0.00 89 1013.3
20260903045504 60 237 3.0 7.0 0.00 0.00 0.00 89 1013.3
20260903045006 60 229 3.0 7.0 0.00 0.00 0.00 88 1013.3
20260903044504 60 228 2.0 7.0 0.00 0.00 0.00 88 1013.4
20260903044005 60 239 2.0 5.0 0.00 0.00 0.00 88 1013.4
20260903043505 60 237 2.0 4.0 0.00 0.00 0.00 88 1013.4
20260903043006 60 224 2.0 4.0 0.00 0.00 0.00 88 1013.2
20260903042006 60 233 2.0 6.0 0.00 0.00 0.00 88 1013.5
20260903041005 60 229 2.0 7.0 0.00 0.00 0.00 89 1013.5
20260903040504 60 242 2.0 7.0 0.00 0.00 0.00 89 1013.4